Theta_e
341 336 334 333 335 338 341 344 348 350 347 350 350 350 349 346 344 344 343 341 340 341
344 338 333 335 340 344 344 345 345 346 347 348 348 346 346 345 338 338 341 341 342 340
340 336 336 339 345 343 341 343 343 344 344 344 344 343 343 339 338 337 339 342 341 339
342 344 344 343 342 341 341 340 340 339 338 338 339 340 338 337 336 338 337 340 339 339
336 337 337 337 337 340 340 339 338 337 337 337 337 336 337 336 339 337 337 337 337 337
337 337 335 337 338 336 335 335 337 336 334 331 332 333 333 333 334 334 334 336 333 332
335 334 334 334 334 333 334 334 332 331 329 327 326 327 326 326 324 323 322 324 326 327
332 331 330 328 327 326 326 329 331 329 328 327 325 321 321 321 320 319 317 319 321 321
329 327 324 323 323 322 322 322 324 325 323 323 321 324 321 317 314 313 312 311 313 317
328 326 323 321 320 319 318 318 318 317 319 319 319 321 321 316 311 309 308 309 310 311
327 323 321 319 317 316 316 315 314 315 314 316 319 320 319 315 311 310 309 309 309 310
325 321 319 316 315 314 313 313 312 314 315 314 315 316 319 313 310 309 308 308 308 310
320 318 316 315 313 312 312 312 311 312 313 314 312 313 317 314 309 307 305 307 308 308
318 316 314 311 312 312 311 311 311 310 307 307 308 310 313 309 306 305 305 305 305 306
Wind_Speed
14 12 9 5 5 4 4 5 6 5 4 5 5 4 4 2 3 2 2 4 5 3
13 10 11 9 8 2 3 4 5 2 1 1 2 1 1 2 3 1 1 2 1 1
5 6 3 4 5 3 1 3 4 4 5 5 5 4 4 2 1 1 2 2 3 3
7 6 5 4 3 3 3 2 3 4 6 6 5 4 3 2 1 2 2 1 1 1
10 8 6 6 4 5 5 4 5 5 6 6 5 5 3 4 4 5 5 3 4 4
10 9 8 7 6 6 6 5 5 6 7 6 6 6 6 5 6 7 7 4 4 6
8 8 7 6 7 7 6 6 6 6 6 6 6 6 6 6 6 6 7 7 8 8
8 8 8 7 6 6 6 6 6 5 5 4 5 5 4 5 5 6 6 6 6 6
7 8 7 6 5 6 5 5 5 6 5 5 5 10 11 8 6 6 5 5 5 6
7 7 7 6 5 5 5 4 5 5 4 4 3 8 9 10 5 5 4 4 4 4
7 6 6 6 5 4 3 4 3 3 3 2 1 3 6 7 4 4 3 3 3 3
8 6 5 5 5 4 3 2 2 1 3 4 3 4 3 6 3 2 1 2 2 3
6 6 6 5 4 2 2 2 1 3 2 3 3 9 4 4 2 1 2 3 5 9
5 6 5 4 3 3 2 2 3 3 3 4 5 5 5 6 3 2 2 4 6 6
Wind_Direction
121 233 249 230 227 220 262 294 268 258 258 256 237 208 181 152 113 153 162 185 211 224
203 188 209 232 255 215 319 308 320 328 333 249 140 139 164 101 99 121 227 236 295 142
202 177 224 256 269 151 236 359 360 22 50 59 57 63 74 100 131 237 235 210 108 95
127 116 120 109 106 81 77 63 50 46 45 42 39 45 59 41 28 321 264 255 110 102
85 78 75 73 61 56 63 53 57 47 49 43 43 43 45 42 37 39 61 69 73 35
86 86 79 73 71 62 67 54 53 57 58 50 43 48 53 63 56 51 40 40 33 31
96 95 88 82 71 62 55 65 64 61 65 62 55 53 55 61 60 54 48 47 52 50
114 106 99 87 79 76 55 54 72 76 65 65 66 53 58 55 63 63 60 46 55 51
99 90 82 78 70 66 66 57 60 59 59 50 55 60 72 73 72 64 54 45 35 49
120 110 95 88 82 72 63 66 61 52 51 60 47 78 88 101 102 96 78 64 47 42
111 112 115 106 94 81 70 69 65 48 39 37 17 108 120 105 99 93 81 76 49 20
125 118 110 96 91 82 82 69 56 349 5 8 321 298 205 135 120 96 46 15 347 323
110 114 106 97 85 74 75 77 359 345 341 2 356 5 311 137 120 100 347 329 319 327
103 106 103 97 82 87 62 9 49 64 41 27 11 353 92 106 95 82 342 325 315 315